Regional Weather Roundup
Issued by NWS

Home | Current Version | Previous Version | Text Only | Print | Product List | Glossary Off
Versions: 1 2 3 4 5 6 7 8 9 10 11 12 13 14 15 16 17 18 19 20 21 22 23 24 25 26 27 28 29 30 31 32 33 34 35 36 37 38 39 40 41 42 43 44 45 46 47 48 49 50

000
ASUS43 KMPX 310801
RWRMN
WEATHER ROUNDUP FOR MINNESOTA
NATIONAL WEATHER SERVICE TWIN CITIES/CHANHASSEN MN
300 AM CDT MON AUG 31 2015


NOTE: "FAIR" INDICATES FEW OR NO CLOUDS BELOW 12,000 FEET WITH NO
SIGNIFICANT WEATHER AND/OR OBSTRUCTIONS TO VISIBILITY. N/A MEANS
CURRENT SKY AND/OR WEATHER CONDITIONS ARE NOT AVAILABLE.

MNZ060>063-068>070-310900-
   Twin Cities Metro

CITY           SKY/WX    TMP DP  RH WIND       PRES   REMARKS
TWIN CITIES    MOCLDY    65  63  93 SE6       29.93F
ST PAUL        CLEAR     64  63  96 SE6       29.94S
CRYSTAL        CLEAR     68  64  87 S8        29.91S
BLAINE         PTCLDY    66  66 100 S6        29.92S
LAKEVILLE      CLEAR     61  61 100 S3        29.94F FOG
EDEN PRAIRIE   CLEAR     66  64  93 S9        29.92S
SOUTH ST PAUL  CLEAR     65  63  94 SE6       29.94S FOG
LAKE ELMO      FAIR      63  63 100 S6        29.95S
$$
MNZ001>005-007-008-013>017-022>024-027-028-310900-
   Northwest Minnesota

CITY           SKY/WX    TMP DP  RH WIND       PRES   REMARKS
BEMIDJI        CLEAR     66  61  82 S10       29.78S
HALLOCK        CLEAR     72  66  83 S15       29.63F
ROSEAU         CLEAR     70  64  83 S12       29.68S
WARROAD        CLEAR     70  64  83 S7        29.69S
THIEF RVR FALL PTCLDY   N/A N/A N/A S9        29.69S
CROOKSTON      PTCLDY    70  63  78 S15       29.69S
FOSSTON        CLEAR     64  55  72 S9        29.74S
DETROIT LAKES  CLEAR     66  59  77 S10       29.79S
MOORHEAD       CLEAR     66  61  82 S18       29.72S
PARK RAPIDS      N/A     66  61  84 S9        29.81S
MAHNOMEN       FAIR      68  58  72 S13G18    29.74S
$$
MNZ006-009>011-018-025>026-310900-
   North Central Minnesota

CITY           SKY/WX    TMP DP  RH WIND       PRES   REMARKS
BAUDETTE       PTCLDY    66  63  90 S6        29.72S
FLAG ISLAND    CLEAR     68  66  94 S12       29.67F
INTL FALLS     MOCLDY    66  64  93 VRB3      29.77S
WASKISH        PTCLDY    70  63  78 S9        29.74F
BIG FORK       CLEAR     66  63  88 S8        29.82R
LONGVILLE      PTCLDY    64  63  94 S8        29.83S
GRAND RAPIDS     N/A     64  63  94 S13       29.84F
CRANE LAKE     PTCLDY    64  63  94 S6        29.83S
COOK           PTCLDY    66  64  94 S5        29.85S
WALKER         FAIR      67  61  81 S10       29.80S
$$
MNZ012-019>021-037-310900-
   Northeast Minnesota

CITY           SKY/WX    TMP DP  RH WIND       PRES   REMARKS
DULUTH         MOCLDY    66  64  93 SW13      29.89F
ELY            CLEAR     66  63  88 SW7       29.87R
HIBBING        CLOUDY    65  63  93 SE5       29.87S
EVELETH        FOG       59  59 100 CALM      29.89R VSB 1/4
DULUTH HARBOR  MOCLDY    66  64  94 SW6       29.88S
TWO HARBORS    MOCLDY    66  63  88 CALM      29.87S HAZE
SILVER BAY     PTCLDY    63  61  94 CALM      29.87S
GRAND MARAIS     N/A     54  52  93 CALM      29.87S
G MARAIS ARPRT FOG       61  57  88 CALM      29.91S VSB 1
$$
MNZ029>031-032-039>041-046>048-054>057-064-310900-
   West Central Minnesota

CITY           SKY/WX    TMP DP  RH WIND       PRES   REMARKS
FERGUS FALLS   CLEAR     64  61  88 S13       29.78S
WHEATON        CLEAR     63  57  82 SE12G17   29.78S
MORRIS         PTCLDY    63  63 100 SE9       29.81S FOG
ALEXANDRIA     CLEAR     65  62  90 S12       29.85F
ELBOW LAKE     FAIR      64  61  91 S17G24    29.80S
WADENA         CLEAR     64  61  88 S6        29.81F
GLENWOOD       CLEAR     64  63  94 S8        29.86S FOG
APPLETON       CLEAR     63  61  94 SE3       29.82S FOG
BENSON         CLEAR     64  61  88 S6        29.84S FOG
ORTONVILLE     CLEAR     63  59  88 SE6       29.80F
MADISON        CLEAR     64  63  94 S7        29.82S
WILLMAR        MOCLDY    64  64 100 S6        29.88S FOG
$$
MNZ033>034-036-042>043-049>051-058-059-310900-
   Central Minnesota

CITY           SKY/WX    TMP DP  RH WIND       PRES   REMARKS
ST CLOUD       CLOUDY    65  64  97 S8        29.89F FOG
SAUK CENTRE    FAIR      63  63  99 SE6       29.86F FOG
PAYNESVILLE    PTCLDY    65  64  97 SE6       29.89S FOG
AITKIN         CLEAR     66  61  82 S9        29.86S
PINE RIVER     PTCLDY    64  64 100 S7        29.88S
BRAINERD       PTCLDY    65  63  93 S9        29.86F
STAPLES        PTCLDY    64  63  94 S9        29.83F
LONG PRAIRIE   CLOUDY    63  61  94 SE8       29.87S FOG
LITTLE FALLS   PTCLDY    63  61  94 SE7       29.87F FOG
LITCHFIELD     MOCLDY    66  66 100 S5        29.90S FOG
BUFFALO        MOCLDY    65  63  90 S7        29.92R
MAPLE LAKE     CLOUDY    67  66  96 S6        29.91S FOG
$$
MNZ037-044-045-052-053-310900-
   East Central Minnesota

CITY           SKY/WX    TMP DP  RH WIND       PRES   REMARKS
PRINCETON      CLOUDY    66  64  94 SE6       29.91S
MORA           CLOUDY    64  64 100 S5        29.92
CAMBRIDGE      FAIR      66  59  77 S3        29.90S
RUSH CITY      CLEAR     63  62  96 S6        29.91F
MOOSE LAKE     CLOUDY    66  63  88 S8        29.88S
HINCKLEY       CLOUDY    64  64 100 S5        29.91F FOG
CLOQUET        CLOUDY    66  63  88 S10       29.89S
MCGREGOR       PTCLDY    64  63  94 S6        29.88S
$$
MNZ071>073-080-081-089-090-097-098-310900-
   Southwest Minnesota

CITY           SKY/WX    TMP DP  RH WIND       PRES   REMARKS
MONTEVIDEO     CLEAR     64  64 100 SW7       29.86S FOG
GRANITE FALLS  CLOUDY    64  63  97 SE7       29.87S FOG
CANBY          CLEAR     68  63  83 S8        29.85R
MARSHALL       CLEAR     66  61  82 SW17G23   29.87S
REDWOOD FALLS  PTCLDY    65  63  93 S9        29.88S
OLIVIA         PTCLDY    61  59  94 S8        29.87F FOG
PIPESTONE      CLEAR     66  64  94 S13       29.91S FOG
WINDOM         CLEAR     66  63  88 S10       29.92S
WORTHINGTON    CLEAR     64  61  88 S15       29.93S
JACKSON        CLEAR     64  64 100 S10       29.95S FOG
TRACY          PTCLDY    68  65  92 SW17G24   29.88S
SLAYTON        CLEAR     65  65  99 S14G22    29.92S
$$
MNZ065>067-074>077-082>085-091>093-310900-
   South Central Minnesota

CITY           SKY/WX    TMP DP  RH WIND       PRES   REMARKS
MANKATO        CLEAR     64  61  88 S9        29.94S
NEW ULM        CLEAR     64  64 100 S9        29.91S FOG
ST JAMES       CLEAR     66  64  94 S9        29.93F
FAIRMONT       CLEAR     64  59  82 S7        29.94F
GLENCOE        MOCLDY    65  65  99 S6        29.91F FOG
FARIBAULT      CLEAR     63  61  94 S6        29.96S FOG
OWATONNA       CLEAR     64  61  88 S9        29.97R FOG
WASECA         CLEAR     63  61  94 S6        29.97S FOG
ALBERT LEA     MOCLDY    64  64 100 S6        29.98S FOG
$$
MNZ078>079-086>088-094>096-310900-
   Southeast Minnesota

CITY           SKY/WX    TMP DP  RH WIND       PRES   REMARKS
ROCHESTER      CLEAR     60  59  96 S7        29.99F FOG
RED WING       CLEAR     63  61  94 SE5       29.96S
STANTON        CLEAR     65  62  91 S5        29.94F
DODGE CENTER   CLEAR     64  63  94 S8        29.98S FOG
WINONA         CLEAR     59  59 100 CALM      29.99S
PRESTON        MOCLDY    62  60  94 S7        30.01S FOG
$$
ABBREVIATIONS USED IN REMARKS
   TC - TEMPERATURES IN CELSIUS
  WCI - WIND CHILL INDEX
   HX - HEAT INDEX
  VSB - VISIBILITY
$$



USA.gov is the U.S. government's official web portal to all federal, state and local government web resources and services.